Weather History for KPEO - February, 2013

Change the Weather History Date:

Monday, February 25, 2013

  Actual Average (KITH) Record (KITH)
Temperature  
Mean Temperature 30 °F -  
Max Temperature 36 °F 36 °F 63 °F (1985)
Min Temperature 21 °F 19 °F -6 °F (1959)
Degree Days  
Heating Degree Days 35    
Moisture  
Dew Point 22 °F    
Average Humidity 69    
Maximum Humidity 85    
Minimum Humidity 52    
Precipitation  
Precipitation 0.00 in - - ()
Sea Level Pressure  
Sea Level Pressure 30.18 in    
Wind  
Wind Speed 7 mph (NW)    
Max Wind Speed 13 mph    
Max Gust Speed 23 mph    
Visibility 10 miles    
Events      
Averages and records for this station are not official NWS values.
T = Trace of Precipitation, MM = Missing Value Source: NWS Daily Summary

Daily Weather History Graph

Daily Weather History Graph

Search for Another Location

Airport or City:

Trip Planner

Search our weather history database for the weather conditions in past years. The results will help you decide how hot, cold, wet, or windy it might be!

Date:

Astronomy

Feb. 25, 2013 Rise Set
Actual Time 6:49 AM EST 5:53 PM EST
Civil Twilight 6:21 AM EST 6:21 PM EST
Nautical Twilight 5:48 AM EST 6:54 PM EST
Astronomical Twilight 5:16 AM EST 7:27 PM EST
Moon 6:05 PM EST (2/25) 6:18 AM EST (2/25)
Length of Visible Light 12h 00m
Length of Day
11h 03m
Full, 100% of the Moon is Illuminated
Feb 25
Full
Feb 25
Full
Mar 4
Last Quarter
Mar 11
New
Mar 19
First Quarter

Hourly Weather History & Observations

Time (EST) Temp. Windchill Dew Point Humidity Pressure Visibility Wind Dir Wind Speed Gust Speed Precip Events Conditions
12:53 AM 30.9 °F 22.8 °F 23.0 °F 72% 30.06 in 10.0 mi WNW 9.2 mph - N/A   Mostly Cloudy
1:53 AM 30.9 °F 23.5 °F 23.0 °F 72% 30.07 in 10.0 mi WNW 8.1 mph 17.3 mph N/A   Overcast
2:53 AM 30.9 °F 21.7 °F 23.0 °F 72% 30.08 in 10.0 mi WNW 11.5 mph 18.4 mph N/A   Overcast
3:53 AM 30.9 °F 21.2 °F 23.0 °F 72% 30.08 in 10.0 mi WNW 12.7 mph 23.0 mph N/A   Overcast
4:53 AM 30.9 °F 22.8 °F 24.1 °F 76% 30.11 in 10.0 mi WNW 9.2 mph 20.7 mph N/A   Overcast
5:53 AM 30.9 °F 22.8 °F 24.1 °F 76% 30.12 in 10.0 mi WNW 9.2 mph 18.4 mph N/A   Overcast
6:53 AM 30.9 °F 24.3 °F 24.1 °F 76% 30.14 in 10.0 mi WNW 6.9 mph - N/A   Overcast
7:53 AM 30.9 °F - 24.1 °F 76% 30.16 in 10.0 mi Calm Calm - N/A   Overcast
8:53 AM 33.1 °F 30.0 °F 25.0 °F 72% 30.18 in 10.0 mi NW 3.5 mph - N/A   Overcast
9:03 AM 33.8 °F 29.6 °F 24.8 °F 70% 30.15 in 10.0 mi Variable 4.6 mph - N/A   Overcast
9:53 AM 34.0 °F 27.2 °F 25.0 °F 70% 30.19 in 10.0 mi WNW 8.1 mph - N/A   Overcast
10:14 AM 33.8 °F 29.6 °F 24.8 °F 70% 30.16 in 10.0 mi Variable 4.6 mph - N/A   Overcast
10:53 AM 35.1 °F 30.1 °F 24.1 °F 64% 30.20 in 10.0 mi Variable 5.8 mph - N/A   Overcast
11:53 AM 35.1 °F 31.0 °F 23.0 °F 61% 30.22 in 10.0 mi NNW 4.6 mph - N/A   Overcast
12:01 PM 35.6 °F 31.7 °F 23.0 °F 60% 30.18 in 10.0 mi WNW 4.6 mph - N/A   Overcast
12:53 PM 36.0 °F 30.3 °F 21.9 °F 57% 30.22 in 10.0 mi NW 6.9 mph - N/A   Overcast
1:53 PM 36.0 °F 30.3 °F 21.0 °F 55% 30.22 in 10.0 mi NW 6.9 mph - N/A   Overcast
2:53 PM 36.0 °F 30.3 °F 21.0 °F 55% 30.21 in 10.0 mi NW 6.9 mph - N/A   Overcast
3:53 PM 36.0 °F 30.3 °F 19.9 °F 52% 30.21 in 10.0 mi NW 6.9 mph - N/A   Overcast
4:53 PM 35.1 °F 30.1 °F 19.0 °F 52% 30.21 in 10.0 mi WNW 5.8 mph - N/A   Overcast
5:53 PM 34.0 °F 29.8 °F 19.9 °F 56% 30.22 in 10.0 mi NNW 4.6 mph - N/A   Overcast
6:53 PM 28.0 °F - 19.0 °F 69% 30.23 in 10.0 mi Calm Calm - N/A   Scattered Clouds
7:53 PM 24.1 °F - 19.0 °F 81% 30.24 in 10.0 mi Calm Calm - N/A   Clear
8:53 PM 24.1 °F - 19.0 °F 81% 30.24 in 10.0 mi Calm Calm - N/A   Clear
9:53 PM 25.0 °F - 19.9 °F 81% 30.25 in 10.0 mi Calm Calm - N/A   Clear
10:53 PM 25.0 °F - 19.9 °F 81% 30.25 in 10.0 mi Calm Calm - N/A   Clear
11:53 PM 21.0 °F - 17.1 °F 85% 30.23 in 10.0 mi Calm Calm - N/A   Clear